CW4279 Weather Reports


time (UTC)temp
F
wind
direction
speed
knots
gust
knots
rain 1hr
in
rain 24hr
in
rain mn
in
humidity
%
barometer
mb
20260510214322 57 158 0.9 1.7 0.00 0.00 0.00 32 1018.5
20260510213819 59 62 1.7 5.2 0.00 0.00 0.00 33 1018.5
20260510213316 58 224 1.7 2.6 0.00 0.00 0.00 34 1018.4
20260510212812 58 249 2.6 5.2 0.00 0.00 0.00 31 1018.5
20260510212309 59 67 1.7 4.3 0.00 0.00 0.00 32 1018.3
20260510211806 58 29 0.9 6.1 0.00 0.00 0.00 33 1018.4
20260510211303 57 73 3.5 4.3 0.00 0.00 0.00 33 1018.3
20260510210758 57 40 2.6 7.8 0.00 0.00 0.00 34 1018.3
20260510210252 58 282 0.9 4.3 0.00 0.00 0.00 34 1018.3
20260510205746 59 72 2.6 5.2 0.00 0.00 0.00 32 1018.4
20260510205242 59 334 2.6 7.8 0.00 0.00 0.00 33 1018.2
20260510204738 57 9 1.7 4.3 0.00 0.00 0.00 32 1018.4
20260510204235 57 126 0.9 4.3 0.00 0.00 0.00 34 1018.3
20260510203732 58 123 1.7 2.6 0.00 0.00 0.00 35 1018.5
20260510203230 57 220 3.5 7.8 0.00 0.00 0.00 34 1018.3
20260510202729 58 126 2.6 6.1 0.00 0.00 0.00 33 1018.2
20260510202225 57 193 0.9 2.6 0.00 0.00 0.00 35 1018.4
20260510201723 58 168 1.7 2.6 0.00 0.00 0.00 32 1018.4
20260510201219 57 75 2.6 6.1 0.00 0.00 0.00 34 1018.4
20260510200715 55 45 1.7 6.1 0.00 0.00 0.00 36 1018.5
20260510200213 57 299 1.7 4.3 0.00 0.00 0.00 33 1018.5
20260510195710 57 113 1.7 2.6 0.00 0.00 0.00 34 1018.6
20260510195207 56 69 3.5 4.3 0.00 0.00 0.00 35 1018.7
20260510194706 58 47 2.6 2.6 0.00 0.00 0.00 36 1018.7
20260510194203 57 141 0.0 2.6 0.00 0.00 0.00 37 1018.4
20260510193658 57 71 0.0 4.3 0.00 0.00 0.00 35 1018.5
20260510193153 56 164 0.9 5.2 0.00 0.00 0.00 36 1018.7
20260510192649 55 292 2.6 7.0 0.00 0.00 0.00 37 1018.6
20260510192144 57 171 1.7 5.2 0.00 0.00 0.00 36 1018.5
20260510191641 56 108 0.9 2.6 0.00 0.00 0.00 34 1018.6
20260510191138 57 268 2.6 5.2 0.00 0.00 0.00 34 1018.5
20260510190635 58 111 0.9 2.6 0.00 0.00 0.00 36 1018.3
20260510190132 57 69 2.6 6.1 0.00 0.00 0.00 37 1018.2
20260510185629 56 103 1.7 5.2 0.00 0.00 0.00 39 1018.6
20260510185127 56 105 1.7 6.1 0.00 0.00 0.00 37 1018.4
20260510184623 56 276 2.6 6.1 0.00 0.00 0.00 39 1018.6
20260510184119 56 12 2.6 6.1 0.00 0.00 0.00 38 1018.5
20260510183615 57 66 0.9 5.2 0.00 0.00 0.00 38 1018.4
20260510183110 54 85 1.7 6.1 0.00 0.00 0.00 39 1018.4
20260510182607 54 94 4.3 6.1 0.00 0.00 0.00 39 1018.2
20260510182102 55 64 1.7 4.3 0.00 0.00 0.00 37 1018.5
20260510181600 56 141 1.7 4.3 0.00 0.00 0.00 38 1018.4
20260510181056 55 154 0.9 6.1 0.00 0.00 0.00 36 1018.6
20260510180553 56 271 2.6 6.1 0.00 0.00 0.00 36 1018.4
20260510180051 55 51 2.6 6.1 0.00 0.00 0.00 37 1018.2
20260510175551 54 156 1.7 6.1 0.00 0.00 0.00 39 1018.3
20260510175047 55 68 10.4 13.9 0.00 0.00 0.00 38 1018.4
20260510174545 55 91 2.6 6.1 0.00 0.00 0.00 36 1018.1
20260510174042 55 49 2.6 7.8 0.00 0.00 0.00 36 1018.3
20260510173537 55 306 1.7 7.0 0.00 0.00 0.00 36 1018.5
20260510173034 55 33 4.3 7.8 0.00 0.00 0.00 37 1018.4
20260510172530 55 341 4.3 7.0 0.00 0.00 0.00 37 1018.1
20260510172027 54 177 2.6 7.8 0.00 0.00 0.00 36 1018.2
20260510171523 55 65 2.6 8.7 0.00 0.00 0.00 37 1018.0
20260510171021 54 160 3.5 7.0 0.00 0.00 0.00 37 1018.0
20260510170517 54 251 2.6 5.2 0.00 0.00 0.00 36 1018.1
20260510170014 54 34 4.3 6.1 0.00 0.00 0.00 37 1018.3
20260510165509 55 180 1.7 4.3 0.00 0.00 0.00 36 1018.2
20260510165006 54 47 3.5 11.3 0.00 0.00 0.00 38 1018.3
20260510164503 54 7 0.9 2.6 0.00 0.00 0.00 37 1018.1
20260510163958 55 31 1.7 2.6 0.00 0.00 0.00 38 1018.1
20260510163449 54 318 1.7 6.1 0.00 0.00 0.00 40 1018.1
20260510162944 54 53 4.3 7.8 0.00 0.00 0.00 38 1018.0
20260510162441 54 166 1.7 5.2 0.00 0.00 0.00 39 1018.4
20260510161937 54 81 2.6 5.2 0.00 0.00 0.00 40 1018.2
20260510161432 54 238 2.6 7.0 0.00 0.00 0.00 39 1018.1
20260510160930 53 180 1.7 5.2 0.00 0.00 0.00 42 1017.9
20260510160426 53 210 3.5 6.1 0.00 0.00 0.00 39 1017.9
20260510155919 53 332 2.6 6.1 0.00 0.00 0.00 41 1017.8
20260510155417 54 33 3.5 6.1 0.00 0.00 0.00 40 1018.1
20260510154913 54 82 1.7 5.2 0.00 0.00 0.00 39 1017.9
20260510154409 53 200 2.6 5.2 0.00 0.00 0.00 40 1017.7
20260510153903 53 49 4.3 7.0 0.00 0.00 0.00 41 1017.7
20260510153359 53 155 1.7 4.3 0.00 0.00 0.00 42 1017.9
20260510152856 53 83 2.6 5.2 0.00 0.00 0.00 41 1017.8
20260510152353 51 63 2.6 6.1 0.00 0.00 0.00 44 1017.6
20260510151850 52 341 2.6 6.1 0.00 0.00 0.00 42 1017.6
20260510151348 52 135 0.9 9.6 0.00 0.00 0.00 41 1017.8
20260510150843 52 291 2.6 6.1 0.00 0.00 0.00 42 1018.0
20260510150339 51 95 1.7 7.0 0.00 0.00 0.00 42 1017.7
20260510145836 51 39 2.6 7.0 0.00 0.00 0.00 44 1017.7
20260510145332 51 212 3.5 6.1 0.00 0.00 0.00 43 1017.6
20260510144829 51 355 2.6 7.0 0.00 0.00 0.00 44 1017.7
20260510144325 51 53 3.5 5.2 0.00 0.00 0.00 44 1017.8
20260510143825 51 101 2.6 4.3 0.00 0.00 0.00 45 1017.5
20260510143321 50 21 2.6 7.0 0.00 0.00 0.00 45 1017.6
20260510142819 50 338 1.7 2.6 0.00 0.00 0.00 46 1017.6
20260510142315 49 155 2.6 4.3 0.00 0.00 0.00 49 1017.4
20260510141812 48 170 2.6 4.3 0.00 0.00 0.00 49 1017.6
20260510141309 47 47 1.7 7.0 0.00 0.00 0.00 51 1017.5
20260510140807 47 125 1.7 4.3 0.00 0.00 0.00 53 1017.4
20260510140302 48 12 2.6 5.2 0.00 0.00 0.00 53 1017.5
20260510135755 48 130 1.7 4.3 0.00 0.00 0.00 54 1017.6
20260510135252 47 107 1.7 4.3 0.00 0.00 0.00 55 1017.6
20260510134750 47 34 1.7 9.6 0.00 0.00 0.00 56 1017.5
20260510134247 47 87 0.9 6.1 0.00 0.00 0.00 59 1017.7
20260510133742 46 107 0.9 2.6 0.00 0.00 0.00 61 1017.5
20260510133238 47 111 1.7 5.2 0.00 0.00 0.00 60 1017.4
20260510132734 46 77 1.7 4.3 0.00 0.00 0.00 63 1017.5
20260510132232 46 31 1.7 2.6 0.00 0.00 0.00 66 1017.4
20260510131728 45 168 2.6 2.6 0.00 0.00 0.00 67 1017.4
20260510131227 44 82 0.9 4.3 0.00 0.00 0.00 71 1017.3
20260510130723 44 110 0.0 0.9 0.00 0.00 0.00 73 1017.4
20260510130220 43 115 0.0 0.9 0.00 0.00 0.00 74 1017.3
20260510125716 43 106 0.9 1.7 0.00 0.00 0.00 74 1017.5
20260510125212 42 95 0.9 1.7 0.00 0.00 0.00 76 1017.2
20260510124709 42 93 0.9 1.7 0.00 0.00 0.00 77 1017.2
20260510124207 42 98 0.9 1.7 0.00 0.00 0.00 79 1017.2
20260510123702 42 107 0.9 1.7 0.00 0.00 0.00 79 1017.2
20260510123158 41 102 0.9 1.7 0.00 0.00 0.00 80 1017.3
20260510122655 41 113 0.9 0.9 0.00 0.00 0.00 80 1017.1
20260510122151 41 114 0.0 0.9 0.00 0.00 0.00 80 1017.1
20260510121647 40 114 0.0 0.0 0.00 0.00 0.00 81 1016.6
20260510121145 40 114 0.0 0.0 0.00 0.00 0.00 81 1016.5
20260510120642 40 114 0.0 0.0 0.00 0.00 0.00 81 1016.8
20260510120138 40 114 0.0 0.0 0.00 0.00 0.00 82 1016.8
20260510115634 39 114 0.0 0.9 0.00 0.00 0.00 82 1016.6
20260510115132 39 115 0.0 0.9 0.00 0.00 0.00 83 1016.5
20260510114628 39 115 0.0 0.0 0.00 0.00 0.00 84 1016.6
20260510114124 39 115 0.0 0.9 0.00 0.00 0.00 82 1016.4
20260510113619 38 110 0.9 0.9 0.00 0.00 0.00 80 1016.2
20260510113117 38 110 0.9 0.9 0.00 0.00 0.00 82 1016.3
20260510112613 38 110 0.0 0.0 0.00 0.00 0.00 84 1016.4
20260510112110 37 110 0.0 0.9 0.00 0.00 0.00 81 1016.0
20260510111606 37 110 0.0 0.0 0.00 0.00 0.00 82 1016.3
20260510111102 37 110 0.0 0.0 0.00 0.00 0.00 81 1016.0
20260510110558 37 110 0.0 0.0 0.00 0.00 0.00 82 1016.1
20260510110055 37 110 0.0 0.0 0.00 0.00 0.00 83 1016.2
20260510105551 37 110 0.0 0.0 0.00 0.00 0.00 84 1015.9
20260510105045 37 110 0.0 0.0 0.00 0.00 0.00 84 1015.7
20260510104542 37 110 0.0 0.0 0.00 0.00 0.00 84 1015.7
20260510104039 36 110 0.0 0.0 0.00 0.00 0.00 82 1015.7
20260510103536 36 110 0.0 0.9 0.00 0.00 0.00 82 1015.7
20260510103032 36 110 0.0 0.9 0.00 0.00 0.00 83 1015.6
20260510102528 36 110 0.0 0.0 0.00 0.00 0.00 85 1015.5
20260510102024 36 110 0.0 0.0 0.00 0.00 0.00 84 1015.3
20260510101522 36 110 0.0 0.0 0.00 0.00 0.00 84 1015.3
20260510101021 36 110 0.0 0.0 0.00 0.00 0.00 84 1015.0
20260510100516 36 110 0.0 0.9 0.00 0.00 0.00 84 1015.2
20260510100013 36 110 0.0 0.0 0.00 0.00 0.00 84 1015.3
20260510095509 37 110 0.0 0.0 0.00 0.00 0.00 83 1015.0
20260510095008 36 110 0.0 0.0 0.00 0.00 0.00 80 1014.8
20260510094503 36 110 0.0 0.9 0.00 0.00 0.00 81 1014.8
20260510093959 36 110 0.0 0.0 0.00 0.00 0.00 80 1015.0
20260510093455 36 110 0.0 0.0 0.00 0.00 0.00 80 1014.8
20260510092951 36 110 0.0 0.0 0.00 0.00 0.00 81 1014.7
20260510092449 36 110 0.0 0.0 0.00 0.00 0.00 83 1014.7
20260510091948 36 110 0.0 0.0 0.00 0.00 0.00 82 1014.7
20260510091446 36 110 0.0 0.0 0.00 0.00 0.00 84 1014.6
20260510090942 36 110 0.0 0.0 0.00 0.00 0.00 84 1014.7
20260510090439 36 109 0.0 0.0 0.00 0.00 0.00 85 1014.7
20260510085934 36 109 0.0 0.0 0.00 0.00 0.00 84 1014.6
20260510085430 36 109 0.0 0.0 0.00 0.00 0.00 84 1014.5
20260510084925 36 109 0.0 0.9 0.00 0.00 0.00 84 1014.6
20260510084423 36 109 0.0 0.0 0.00 0.00 0.00 84 1014.5
20260510083920 36 109 0.0 0.0 0.00 0.00 0.00 83 1014.4
20260510083416 36 109 0.0 0.9 0.00 0.00 0.00 83 1014.2
20260510082911 36 109 0.0 0.9 0.00 0.00 0.00 81 1014.2
20260510082409 37 109 0.0 0.9 0.00 0.00 0.00 81 1013.9
20260510081907 37 109 0.0 0.9 0.00 0.00 0.00 79 1014.1
20260510081404 37 109 0.0 0.0 0.00 0.00 0.00 74 1013.8
20260510080900 37 109 0.0 0.9 0.00 0.00 0.00 72 1013.6
20260510080354 37 109 0.0 0.0 0.00 0.00 0.00 73 1013.6
20260510075852 37 109 0.0 0.0 0.00 0.00 0.00 74 1013.6
20260510075350 37 109 0.0 0.0 0.00 0.00 0.00 73 1013.7
20260510074845 37 109 0.0 0.0 0.00 0.00 0.00 72 1013.5
20260510074343 37 109 0.0 0.0 0.00 0.00 0.00 71 1013.6
20260510073839 37 109 0.0 0.9 0.00 0.00 0.00 71 1013.6
20260510073335 37 109 0.0 0.0 0.00 0.00 0.00 71 1013.5
20260510072831 38 109 0.0 0.0 0.00 0.00 0.00 70 1013.6
20260510072328 38 109 0.0 0.9 0.00 0.00 0.00 70 1013.6
20260510071819 38 109 0.9 0.9 0.00 0.00 0.00 70 1013.5
20260510071315 38 109 0.9 0.9 0.00 0.00 0.00 70 1013.4
20260510070814 38 109 0.0 0.9 0.00 0.00 0.00 69 1013.6
20260510070310 37 108 0.0 0.0 0.00 0.00 0.00 70 1013.4
20260510065810 37 108 0.0 0.0 0.00 0.00 0.00 70 1013.5
20260510065307 37 108 0.0 0.0 0.00 0.00 0.00 69 1013.5
20260510064804 37 108 0.0 0.9 0.00 0.00 0.00 68 1013.4
20260510064302 37 108 0.0 0.0 0.00 0.00 0.00 68 1013.5
20260510063757 38 109 0.0 0.0 0.00 0.00 0.00 68 1013.5
20260510063254 38 108 0.0 0.0 0.00 0.00 0.00 67 1013.4
20260510062751 38 108 0.0 0.0 0.00 0.00 0.00 67 1013.6
20260510062247 39 109 0.0 0.9 0.00 0.00 0.00 69 1013.3
20260510061742 39 109 0.0 0.0 0.00 0.00 0.00 66 1013.4
20260510061240 39 109 0.0 0.9 0.00 0.00 0.00 65 1013.4
20260510060735 39 109 0.0 0.0 0.00 0.00 0.00 66 1013.3
20260510060233 39 109 0.0 0.9 0.00 0.00 0.00 65 1013.5
20260510055729 39 109 0.0 0.9 0.00 0.00 0.00 64 1013.6
20260510055227 39 109 0.0 0.0 0.00 0.00 0.00 64 1013.1
20260510054722 40 109 0.0 0.0 0.00 0.00 0.00 64 1013.2
20260510054218 39 109 0.0 0.9 0.00 0.00 0.00 63 1013.2
20260510053717 40 109 0.0 0.9 0.00 0.00 0.00 63 1013.1
20260510053214 40 109 0.0 0.9 0.00 0.00 0.00 63 1013.2
20260510052710 40 108 0.0 0.9 0.00 0.00 0.00 64 1013.1
20260510052206 40 108 0.0 0.0 0.00 0.00 0.00 64 1013.2
20260510051702 40 108 0.0 0.0 0.00 0.00 0.00 62 1013.0
20260510051158 40 108 0.0 0.9 0.00 0.00 0.00 61 1012.9
20260510050656 40 108 0.0 0.0 0.00 0.00 0.00 61 1012.7
20260510050153 41 108 0.9 0.9 0.00 0.00 0.00 61 1013.1
20260510045649 41 106 0.0 0.9 0.00 0.22 0.22 60 1013.0
20260510045146 41 106 0.0 0.9 0.00 0.22 0.22 59 1012.7
20260510044642 41 105 0.0 0.9 0.00 0.22 0.22 58 1012.7
20260510044140 41 105 0.0 0.9 0.00 0.22 0.22 58 1012.7
20260510043635 42 105 0.0 0.0 0.00 0.22 0.22 58 1012.9
20260510043132 42 105 0.0 0.0 0.00 0.22 0.22 58 1012.9
20260510042630 42 105 0.0 0.0 0.00 0.22 0.22 57 1012.7
20260510042125 42 105 0.0 0.0 0.00 0.22 0.22 58 1013.0
20260510041623 42 105 0.0 0.0 0.00 0.22 0.22 61 1012.7
20260510041120 42 105 0.0 0.0 0.00 0.22 0.22 58 1012.7
20260510040617 42 105 0.0 0.0 0.00 0.22 0.22 57 1012.5
20260510040113 42 105 0.0 0.0 0.00 0.22 0.22 57 1012.6
20260510035609 42 105 0.0 0.0 0.00 0.22 0.22 57 1012.5
20260510035104 42 105 0.0 0.0 0.00 0.22 0.22 56 1012.4
20260510034602 42 105 0.0 0.0 0.00 0.22 0.22 56 1012.3
20260510034059 42 105 0.0 0.0 0.00 0.22 0.22 57 1012.4
20260510033555 43 105 0.0 0.0 0.00 0.22 0.22 56 1012.3
20260510033053 43 105 0.0 0.0 0.00 0.22 0.22 55 1012.6
20260510032549 44 105 0.0 0.0 0.00 0.22 0.22 54 1012.6
20260510032044 44 105 0.0 0.0 0.00 0.22 0.22 53 1012.4
20260510031539 45 105 0.0 0.0 0.00 0.22 0.22 53 1012.2
20260510031035 45 105 0.0 0.9 0.00 0.22 0.22 53 1012.3
20260510030531 46 105 0.0 0.9 0.00 0.22 0.22 52 1012.1
20260510030029 46 104 0.9 1.7 0.00 0.22 0.22 52 1012.0
20260510025526 47 110 0.0 1.7 0.00 0.22 0.22 50 1012.1
20260510025023 47 100 0.9 0.9 0.00 0.22 0.22 51 1011.8
20260510024520 47 107 0.0 1.7 0.00 0.22 0.22 50 1011.6
20260510024016 48 94 0.9 1.7 0.00 0.22 0.22 50 1011.7
20260510023512 48 79 1.7 1.7 0.00 0.22 0.22 48 1011.4
20260510023010 48 104 0.0 2.6 0.00 0.22 0.22 48 1011.6
20260510022509 48 113 0.9 1.7 0.00 0.22 0.22 49 1011.2
20260510022008 49 98 0.0 1.7 0.00 0.22 0.22 47 1011.1
20260510021505 49 96 0.9 1.7 0.00 0.22 0.22 48 1011.2
20260510021003 49 71 0.9 1.7 0.00 0.22 0.22 49 1010.9
20260510020457 50 108 1.7 1.7 0.00 0.22 0.22 46 1010.8
20260510015953 50 57 0.9 2.6 0.00 0.22 0.22 42 1010.8
20260510015448 50 100 0.9 1.7 0.00 0.22 0.22 44 1010.7
20260510014943 51 65 2.6 4.3 0.00 0.22 0.22 42 1010.5
20260510014442 51 116 0.0 5.2 0.00 0.22 0.22 42 1010.3
20260510013938 52 98 1.7 1.7 0.00 0.22 0.22 42 1010.4
20260510013432 52 82 2.6 2.6 0.00 0.22 0.22 40 1010.3
20260510012928 52 76 0.9 1.7 0.00 0.22 0.22 42 1010.0
20260510012423 52 87 0.9 1.7 0.00 0.22 0.22 43 1010.2
20260510011918 53 101 0.0 0.9 0.00 0.22 0.22 43 1010.1
20260510011414 53 113 0.0 1.7 0.00 0.22 0.22 39 1009.9
20260510010910 53 98 1.7 2.6 0.00 0.22 0.22 39 1009.8
20260510010408 54 96 0.9 2.6 0.00 0.22 0.22 37 1009.6
20260510005904 54 93 0.9 2.6 0.00 0.22 0.22 40 1009.7
20260510005400 54 55 2.6 2.6 0.00 0.22 0.22 36 1009.4
20260510004858 54 44 1.7 2.6 0.00 0.22 0.22 36 1009.6
20260510004355 54 11 0.9 2.6 0.00 0.22 0.22 37 1009.4
20260510003853 54 97 0.9 4.3 0.00 0.22 0.22 37 1009.4
20260510003350 54 18 1.7 2.6 0.00 0.22 0.22 37 1009.2
20260510002848 55 82 0.9 4.3 0.00 0.22 0.22 37 1009.3
20260510002346 55 113 0.9 7.8 0.00 0.22 0.22 35 1009.3
20260510001842 55 114 0.0 1.7 0.00 0.22 0.22 36 1009.2
20260510001340 55 35 2.6 5.2 0.00 0.22 0.22 35 1009.0
20260510000836 55 30 1.7 6.1 0.00 0.22 0.22 35 1009.2
20260510000334 55 343 2.6 7.8 0.00 0.22 0.22 34 1009.2
20260509235830 56 76 1.7 5.2 0.00 0.22 0.22 33 1009.0
20260509235327 56 111 0.9 7.8 0.00 0.22 0.22 32 1009.0
20260509234823 56 107 0.9 5.2 0.00 0.22 0.22 33 1008.9
20260509234320 57 290 0.9 5.2 0.00 0.22 0.22 34 1009.0
20260509233818 57 338 6.1 7.8 0.00 0.22 0.22 32 1008.6
20260509233316 57 144 0.9 2.6 0.00 0.22 0.22 33 1008.6
20260509232811 57 56 4.3 5.2 0.00 0.22 0.22 33 1008.5
20260509232309 58 60 2.6 8.7 0.00 0.22 0.22 33 1008.4
20260509231805 58 39 2.6 4.3 0.00 0.22 0.22 34 1008.4
20260509231302 58 83 0.9 4.3 0.00 0.22 0.22 31 1008.2
20260509230800 58 359 4.3 7.8 0.00 0.22 0.22 31 1008.6
20260509230256 59 145 2.6 6.1 0.00 0.22 0.22 31 1008.5
20260509225751 58 186 1.7 6.1 0.00 0.22 0.22 31 1008.4
20260509225248 59 135 0.9 9.6 0.00 0.22 0.22 31 1008.3
20260509224744 59 67 3.5 4.3 0.00 0.22 0.22 31 1008.1
20260509224241 59 76 1.7 4.3 0.00 0.22 0.22 31 1008.2
20260509223738 59 25 1.7 5.2 0.00 0.22 0.22 31 1008.5
20260509223235 59 258 2.6 6.1 0.00 0.22 0.22 31 1008.3
20260509222732 59 82 3.5 7.0 0.00 0.22 0.22 30 1007.9
20260509222227 59 331 1.7 7.0 0.00 0.22 0.22 32 1008.0
20260509221723 58 346 3.5 7.0 0.00 0.22 0.22 31 1008.2
20260509221219 59 107 1.7 7.0 0.00 0.22 0.22 33 1007.8
20260509220715 59 4 1.7 7.0 0.00 0.22 0.22 32 1008.0
20260509220212 58 63 2.6 5.2 0.00 0.22 0.22 33 1007.8
20260509215707 59 37 4.3 7.8 0.00 0.22 0.22 32 1007.9
20260509215204 59 336 2.6 7.0 0.00 0.22 0.22 31 1007.9
20260509214701 59 336 4.3 6.1 0.00 0.22 0.22 32 1007.8